Volver al catálogo

STARLINK-5688

ActivoComunicacionesVLEO
NORAD 55479·PAYLOAD·🇺🇸 United States

Lanzado Feb 2, 2023 desde Cape Canaveral Space Force Station

Loading…

Próximos Pases (próximas 24 horas)

TLE

ActualizadoSource: CelesTrak SupGP

Época: Sep 14, 2026, 22:21 UTC

1 55479C 23015AG  26257.93173611 -.00046839  00000+0 -16966-2 0  2572
2 55479  43.0033 332.8669 0001555 282.2995 130.1506 15.27600391    16

Sigue STARLINK-5688 en tiempo real con AllMySat

Download on the App Store